Cork, Ireland

9:14 AM GMT on January 22, 2018 (GMT +0000)
Cork

Weather History for EICK - November, 2011

Change the Weather History Date:

Monday, November 14, 2011

  Actual Average Record
Temperature  
Mean Temperature 53 °F -  
Max Temperature 55 °F 49 °F 59 °F (2016)
Min Temperature 51 °F 39 °F 33 °F (2010)
Degree Days  
Heating Degree Days 12    
Growing Degree Days 3 (Base 50)    
Moisture  
Dew Point 53 °F    
Average Humidity 100    
Maximum Humidity 100    
Minimum Humidity 94    
Precipitation  
Precipitation 0.00 in 0.16 in - ()
Sea Level Pressure  
Sea Level Pressure 30.03 in    
Wind  
Wind Speed 14 mph ()    
Max Wind Speed 22 mph    
Max Gust Speed -    
Visibility 2.6 miles    
Events Fog , Rain    
Averages and records for this station are not official NWS values.
T = Trace of Precipitation, MM = Missing Value Source: Averaged Metar Reports

Daily Weather History Graph

Daily Weather History Graph

Search for Another Location

Airport or City:

Trip Planner

Search our weather history database for the weather conditions in past years. The results will help you decide how hot, cold, wet, or windy it might be!

Date:

Astronomy

Nov. 14, 2011 Rise Set
Actual Time 7:50 AM GMT 4:45 PM GMT
Civil Twilight 7:13 AM GMT 5:22 PM GMT
Nautical Twilight 6:32 AM GMT 6:03 PM GMT
Astronomical Twilight 5:53 AM GMT 6:42 PM GMT
Moon 7:27 PM GMT (11/14) 11:11 AM GMT (11/14)
Length of Visible Light 10h 08m
Length of Day
8h 54m
Waning Gibbous, 88% of the Moon is Illuminated
Nov 14
Waning Gibbous
Nov 18
Last Quarter
Nov 25
New
Dec 2
First Quarter
Dec 10
Full

Hourly Weather History & Observations

Time (GMT) Temp. Dew Point Humidity Pressure Visibility Wind Dir Wind Speed Gust Speed Precip Events Conditions
12:00 AM 55 °F 54 °F 97% 30.05 in 2 mi SE 15.7 mph - - Rain Light Drizzle
12:00 AM 55.4 °F 53.6 °F 94% 30.04 in 2.5 mi SE 15.0 mph - N/A   Light Drizzle
12:30 AM 55.4 °F 53.6 °F 94% 30.04 in 2.5 mi SE 17.3 mph - N/A   Light Drizzle
1:00 AM 55.4 °F 55.4 °F 100% 30.04 in 2.5 mi SE 17.3 mph - N/A   Light Drizzle
1:30 AM 55.4 °F 55.4 °F 100% 30.01 in 2.5 mi SSE 17.3 mph - N/A   Light Drizzle
2:00 AM 55.4 °F 55.4 °F 100% 30.04 in 2.5 mi SSE 13.8 mph - N/A   Light Drizzle
2:30 AM 55.4 °F 55.4 °F 100% 30.04 in 2.5 mi SSE 11.5 mph - N/A   Light Drizzle
3:00 AM 55.4 °F 55.4 °F 100% 30.04 in 1.9 mi ESE 9.2 mph - N/A   Mostly Cloudy
3:30 AM 53.6 °F 53.6 °F 100% 30.04 in 1.6 mi East 11.5 mph - N/A   Mostly Cloudy
4:00 AM 53.6 °F 53.6 °F 100% 30.04 in 1.6 mi ESE 11.5 mph - N/A   Mostly Cloudy
4:30 AM 53.6 °F 53.6 °F 100% 30.04 in 1.6 mi East 13.8 mph - N/A   Mostly Cloudy
5:00 AM 53.6 °F 53.6 °F 100% 30.04 in 2.8 mi East 12.7 mph - N/A   Mostly Cloudy
5:30 AM 53.6 °F 53.6 °F 100% 30.06 in 3.7 mi East 12.7 mph - N/A   Mostly Cloudy
6:00 AM 54 °F 54 °F 100% 30.06 in 3 mi East 15.7 mph - -   Mist
6:00 AM 53.6 °F 53.6 °F 100% 30.04 in 2.8 mi East 15.0 mph - N/A   Mostly Cloudy
6:30 AM 53.6 °F 53.6 °F 100% 30.06 in 1.2 mi East 15.0 mph - N/A   Mostly Cloudy
7:00 AM 53.6 °F 53.6 °F 100% 30.06 in 1.9 mi East 16.1 mph - N/A   Mostly Cloudy
7:30 AM 55.4 °F 55.4 °F 100% 30.06 in 2.8 mi East 17.3 mph - N/A   Mostly Cloudy
8:00 AM 53.6 °F 53.6 °F 100% 30.06 in 2.5 mi ESE 15.0 mph - N/A   Mostly Cloudy
8:30 AM 53.6 °F 53.6 °F 100% 30.06 in 2.5 mi East 17.3 mph - N/A   Mostly Cloudy
9:00 AM 55.4 °F 53.6 °F 94% 30.06 in 2.5 mi East 18.4 mph - N/A   Mostly Cloudy
9:30 AM 53.6 °F 53.6 °F 100% 30.06 in 3.1 mi East 19.6 mph - N/A   Mostly Cloudy
10:00 AM 53.6 °F 53.6 °F 100% 30.06 in 2.8 mi East 19.6 mph - N/A   Overcast
10:30 AM 53.6 °F 53.6 °F 100% 30.06 in 1.9 mi East 21.9 mph - N/A   Overcast
11:00 AM 53.6 °F 53.6 °F 100% 30.06 in 1.1 mi East 19.6 mph - N/A   Overcast
11:30 AM 53.6 °F 53.6 °F 100% 30.06 in 0.7 mi East 19.6 mph - N/A   Overcast
12:00 PM 53 °F 53 °F 100% 30.07 in 1 mi ESE 17.9 mph - - Rain Light Drizzle
12:00 PM 53.6 °F 53.6 °F 100% 30.06 in 0.6 mi ESE 17.3 mph - N/A Fog Light Drizzle
12:30 PM 53.6 °F 53.6 °F 100% 30.04 in 0.7 mi East 18.4 mph - N/A   Light Drizzle
1:00 PM 53.6 °F 53.6 °F 100% 30.04 in 1.1 mi East 16.1 mph - N/A   Light Drizzle
1:30 PM 53.6 °F 53.6 °F 100% 30.04 in 1.6 mi ESE 16.1 mph - N/A   Mostly Cloudy
2:00 PM 53.6 °F 53.6 °F 100% 30.01 in 2.8 mi ESE 15.0 mph - N/A   Mostly Cloudy
2:30 PM 53.6 °F 53.6 °F 100% 30.01 in 2.8 mi ESE 15.0 mph - N/A   Mostly Cloudy
3:00 PM 53.6 °F 53.6 °F 100% 30.01 in 2.2 mi ESE 16.1 mph - N/A   Overcast
3:30 PM 53.6 °F 53.6 °F 100% 30.01 in 1.9 mi East 16.1 mph - N/A   Overcast
4:00 PM 53.6 °F 53.6 °F 100% 30.01 in 1.6 mi East 16.1 mph - N/A   Light Drizzle
4:30 PM 53.6 °F 53.6 °F 100% 30.01 in 1.6 mi East 13.8 mph - N/A   Light Drizzle
5:00 PM 53.6 °F 53.6 °F 100% 30.01 in 1.9 mi East 13.8 mph - N/A   Light Drizzle
5:30 PM 51.8 °F 51.8 °F 100% 30.01 in 1.9 mi ESE 12.7 mph - N/A   Light Drizzle
6:00 PM 51.8 °F 51.8 °F 100% 30.01 in 5.6 mi East 11.5 mph - N/A   Mostly Cloudy
6:30 PM 51.8 °F 51.8 °F 100% 30.01 in 5.6 mi East 12.7 mph - N/A   Mostly Cloudy
7:00 PM 51.8 °F 51.8 °F 100% 30.01 in 6.2 mi East 13.8 mph - N/A   Light Drizzle
7:30 PM 51.8 °F 51.8 °F 100% 30.01 in 6.2 mi East 15.0 mph - N/A   Mostly Cloudy
8:00 PM 51.8 °F 51.8 °F 100% 30.01 in 3.7 mi East 15.0 mph - N/A   Light Drizzle
8:30 PM 51.8 °F 51.8 °F 100% 30.01 in 2.8 mi East 15.0 mph - N/A   Mostly Cloudy
9:00 PM 51.8 °F 51.8 °F 100% 30.01 in 2.8 mi East 16.1 mph - N/A   Mostly Cloudy
9:30 PM 51.8 °F 51.8 °F 100% 29.98 in 2.5 mi East 18.4 mph - N/A   Light Drizzle
10:00 PM 51.8 °F 51.8 °F 100% 29.98 in 3.7 mi East 17.3 mph - N/A   Mostly Cloudy
10:30 PM 51.8 °F 51.8 °F 100% 29.98 in 3.7 mi East 16.1 mph - N/A   Mostly Cloudy
11:00 PM 51.8 °F 51.8 °F 100% 29.98 in 3.7 mi East 16.1 mph - N/A   Mostly Cloudy
11:30 PM 51.8 °F 51.8 °F 100% 29.98 in 4.3 mi ESE 15.0 mph - N/A   Mostly Cloudy